Flag for U.S.A. Weather past 2 weeks in New Orleans, Louisiana, U.S.A.

Now
77 °F

Sunny.


Feels Like: 79 °F
Forecast: 72 / 87 °F
Wind: 12 mph from Southwest

Location: Lakefront Airport

Current Time: Apr 25, 2015 at 8:51:19 PM

Latest Report: Apr 25, 2015 at 7:53 PM


Visibility: 10 mi

Pressure: 29.68 "Hg

Humidity: 66%

Dew point: 65 °F

Location of New OrleansLocation

Historic Weather in New Orleans — Graph

°F

New Orleans temperature yesterday

Maximum temperature yesterday: 81 °F (at 2:53 PM)
Minimum temperature yesterday: 71 °F (at 6:53 AM)
Average temperature yesterday: 76 °F

Past Weeks' High & Low Weather Summary

 TemperatureHumidityPressure
High86 °F (Apr 25, 10:53 AM)90% (Apr 14, 4:53 AM)30.10 "Hg (Apr 14, 4:53 AM)
Low64 °F (Apr 22, 6:53 AM)28% (Apr 21, 4:53 PM)29.67 "Hg (Apr 25, 6:53 PM)
Average75 °F74%29.94 "Hg
* Reported Apr 10 6:53 PM — Apr 25 6:53 PM, New Orleans, Weather by CustomWeather, © 2015

Note: Actual official high and low records may vary slightly from our data, if they occured in-between our weather recording intervals... More about our weather records

Advertising

New Orleans weather history for previous 24 hours

 ConditionsComfort  
Time TempWeatherWind HumidityBarometerVisibility
6:53 PM
Sat, Apr 25
79 °FSunny.10 mph62%29.67 "Hg10 mi
5:53 PM78 °FSunny.10 mph62%29.68 "Hg10 mi
4:53 PM75 °FPartly sunny.9 mph69%29.69 "Hg10 mi
3:53 PM74 °FLight rain. Partly sunny.3 mph79%29.77 "Hg10 mi
2:53 PM74 °FLight rain. Overcast.18 mph82%29.83 "Hg8 mi
1:53 PM73 °FRain. Fog.33 mph88%29.90 "Hg1 mi
12:53 PM81 °FStrong thunderstorms. Overcast.9 mph79%29.78 "Hg6 mi
11:53 AM84 °FPassing clouds.16 mph67%29.76 "Hg9 mi
10:53 AM86 °FSunny.13 mph63%29.77 "Hg9 mi
9:53 AM84 °FSunny.16 mph67%29.76 "Hg9 mi
8:53 AM82 °FSunny.10 mph74%29.79 "Hg7 mi
7:53 AM79 °FSunny.12 mph82%29.80 "Hg6 mi
6:53 AM79 °FPassing clouds.8 mph82%29.81 "Hg5 mi
5:53 AM79 °FClear.9 mph82%29.80 "Hg7 mi
4:53 AM80 °FPassing clouds.13 mph79%29.80 "Hg8 mi
3:53 AM80 °FMostly cloudy.10 mph81%29.82 "Hg8 mi
2:53 AM81 °FMostly cloudy.13 mph79%29.80 "Hg8 mi
1:53 AM79 °FOvercast.9 mph84%29.76 "Hg8 mi
12:53 AM78 °FLow clouds.14 mph84%29.77 "Hg7 mi
11:53 PM
Fri, Apr 24
77 °FMostly cloudy.16 mph85%29.78 "Hg9 mi
10:53 PM75 °FClear.17 mph79%29.79 "Hg10 mi
9:53 PM72 °FClear.7 mph84%29.83 "Hg10 mi
8:53 PM73 °FPassing clouds.No wind79%29.83 "Hg10 mi
Weather by CustomWeather, © 2015

See weather overviewHow to use our weather pages